| time (UTC) | temp F | wind direction | speed MPH | gust MPH | rain 1hr in | rain 24hr in | rain mn in | humidity % | barometer mb |
| 20260508093036 | 47 | 88 | 0.0 | 0.0 | 0.00 | 0.00 | 0.00 | 57 | 1005.1 |
| 20260508091533 | 47 | 88 | 0.0 | 0.0 | 0.00 | 0.00 | 0.00 | 57 | 1005.1 |
| 20260508090036 | 46 | 88 | 0.0 | 0.0 | 0.00 | 0.00 | 0.00 | 59 | 1005.2 |
| 20260508084530 | 45 | 88 | 0.0 | 0.0 | 0.00 | 0.00 | 0.00 | 60 | 1005.2 |
| 20260508083029 | 45 | 88 | 0.0 | 0.0 | 0.00 | 0.00 | 0.00 | 60 | 1005.1 |
| 20260508081528 | 45 | 88 | 0.0 | 0.0 | 0.00 | 0.00 | 0.00 | 59 | 1005.0 |
| 20260508080044 | 46 | 88 | 0.0 | 0.0 | 0.00 | 0.00 | 0.00 | 58 | 1005.0 |
| 20260508074523 | 47 | 88 | 0.0 | 0.0 | 0.00 | 0.00 | 0.00 | 57 | 1005.1 |
| 20260508073020 | 47 | 88 | 0.0 | 0.0 | 0.00 | 0.00 | 0.00 | 56 | 1005.1 |
| 20260508071517 | 49 | 88 | 0.0 | 0.0 | 0.00 | 0.00 | 0.00 | 54 | 1005.1 |
| 20260508070020 | 50 | 88 | 0.0 | 0.0 | 0.00 | 0.00 | 0.00 | 52 | 1005.1 |
| 20260508064527 | 51 | 88 | 0.0 | 0.0 | 0.00 | 0.00 | 0.00 | 51 | 1005.1 |
| 20260508063007 | 52 | 88 | 0.0 | 0.0 | 0.00 | 0.00 | 0.00 | 49 | 1005.1 |
| 20260508061506 | 51 | 88 | 0.0 | 0.0 | 0.00 | 0.00 | 0.00 | 50 | 1005.4 |
| 20260508060004 | 52 | 88 | 0.0 | 0.0 | 0.00 | 0.00 | 0.00 | 48 | 1005.2 |
| 20260508054503 | 52 | 88 | 0.0 | 0.0 | 0.00 | 0.00 | 0.00 | 47 | 1005.3 |
| 20260508053002 | 54 | 88 | 0.0 | 0.0 | 0.00 | 0.00 | 0.00 | 45 | 1005.3 |
| 20260508051502 | 55 | 88 | 0.0 | 0.0 | 0.00 | 0.00 | 0.00 | 43 | 1005.2 |
| 20260508050002 | 55 | 88 | 0.0 | 0.0 | 0.00 | 0.00 | 0.00 | 43 | 1005.2 |
| 20260508044501 | 57 | 88 | 0.0 | 0.0 | 0.00 | 0.00 | 0.00 | 40 | 1005.0 |
| 20260508043108 | 57 | 88 | 0.0 | 0.0 | 0.00 | 0.00 | 0.00 | 40 | 1005.0 |
| 20260508041604 | 58 | 88 | 0.0 | 0.0 | 0.00 | 0.00 | 0.00 | 38 | 1004.9 |
| 20260508040112 | 60 | 88 | 0.0 | 0.0 | 0.00 | 0.00 | 0.00 | 35 | 1004.9 |
| 20260508034559 | 61 | 88 | 0.0 | 0.0 | 0.00 | 0.00 | 0.00 | 34 | 1004.9 |
| 20260508033059 | 63 | 88 | 0.0 | 1.0 | 0.00 | 0.00 | 0.00 | 32 | 1004.9 |
| 20260508031559 | 64 | 44 | 0.0 | 1.0 | 0.00 | 0.00 | 0.00 | 31 | 1004.9 |
| 20260508030058 | 65 | 37 | 0.0 | 4.0 | 0.00 | 0.00 | 0.00 | 30 | 1004.6 |
| 20260508024557 | 66 | 69 | 0.0 | 3.0 | 0.00 | 0.00 | 0.00 | 29 | 1004.5 |
| 20260508023056 | 67 | 39 | 0.0 | 5.0 | 0.00 | 0.00 | 0.00 | 29 | 1004.3 |
| 20260508021556 | 68 | 70 | 1.0 | 4.0 | 0.00 | 0.00 | 0.00 | 28 | 1004.3 |
| 20260508020058 | 68 | 61 | 1.0 | 5.0 | 0.00 | 0.00 | 0.00 | 28 | 1004.3 |
| 20260508014554 | 69 | 27 | 1.0 | 10.0 | 0.00 | 0.00 | 0.00 | 28 | 1004.3 |
| 20260508013054 | 69 | 70 | 2.0 | 5.0 | 0.00 | 0.00 | 0.00 | 28 | 1004.3 |
| 20260508011553 | 69 | 63 | 2.0 | 6.0 | 0.00 | 0.00 | 0.00 | 28 | 1004.2 |
| 20260508010053 | 69 | 34 | 1.0 | 5.0 | 0.00 | 0.00 | 0.00 | 28 | 1004.3 |
| 20260508004554 | 70 | 34 | 1.0 | 5.0 | 0.00 | 0.00 | 0.00 | 28 | 1004.2 |
| 20260508003053 | 69 | 38 | 0.0 | 5.0 | 0.00 | 0.00 | 0.00 | 29 | 1004.3 |
| 20260508001551 | 71 | 51 | 4.0 | 7.0 | 0.00 | 0.00 | 0.00 | 27 | 1004.4 |
| 20260508000057 | 71 | 300 | 2.0 | 8.0 | 0.00 | 0.00 | 0.00 | 28 | 1004.2 |
| 20260507234555 | 72 | 179 | 1.0 | 8.0 | 0.00 | 0.00 | 0.00 | 28 | 1004.2 |
| 20260507233109 | 72 | 150 | 1.0 | 5.0 | 0.00 | 0.00 | 0.00 | 28 | 1004.2 |
| 20260507231547 | 71 | 27 | 1.0 | 7.0 | 0.00 | 0.00 | 0.00 | 29 | 1004.2 |
| 20260507230048 | 71 | 313 | 3.0 | 7.0 | 0.00 | 0.00 | 0.00 | 29 | 1004.3 |
| 20260507224542 | 71 | 297 | 2.0 | 8.0 | 0.00 | 0.00 | 0.00 | 30 | 1004.3 |
| 20260507223054 | 71 | 31 | 2.0 | 9.0 | 0.00 | 0.00 | 0.00 | 29 | 1004.4 |
| 20260507221542 | 71 | 359 | 4.0 | 9.0 | 0.00 | 0.00 | 0.00 | 29 | 1004.5 |
| 20260507220040 | 71 | 59 | 3.0 | 7.0 | 0.00 | 0.00 | 0.00 | 29 | 1004.6 |
| 20260507214536 | 71 | 194 | 1.0 | 9.0 | 0.00 | 0.00 | 0.00 | 29 | 1004.7 |
| 20260507213035 | 70 | 63 | 2.0 | 7.0 | 0.00 | 0.00 | 0.00 | 30 | 1004.9 |
| 20260507211541 | 72 | 36 | 3.0 | 11.0 | 0.00 | 0.00 | 0.00 | 28 | 1005.0 |
| 20260507210033 | 71 | 40 | 2.0 | 9.0 | 0.00 | 0.00 | 0.00 | 29 | 1005.1 |
| 20260507204531 | 70 | 291 | 2.0 | 8.0 | 0.00 | 0.00 | 0.00 | 29 | 1005.4 |
| 20260507203027 | 71 | 27 | 2.0 | 7.0 | 0.00 | 0.00 | 0.00 | 29 | 1005.4 |
| 20260507201526 | 71 | 327 | 3.0 | 9.0 | 0.00 | 0.00 | 0.00 | 29 | 1005.4 |
| 20260507200025 | 71 | 330 | 4.0 | 10.0 | 0.00 | 0.00 | 0.00 | 29 | 1005.4 |
| 20260507194533 | 70 | 21 | 2.0 | 7.0 | 0.00 | 0.00 | 0.00 | 30 | 1005.4 |
| 20260507193021 | 70 | 307 | 3.0 | 7.0 | 0.00 | 0.00 | 0.00 | 29 | 1005.5 |
| 20260507191520 | 69 | 40 | 3.0 | 8.0 | 0.00 | 0.00 | 0.00 | 30 | 1005.5 |
| 20260507190020 | 69 | 30 | 1.0 | 8.0 | 0.00 | 0.00 | 0.00 | 32 | 1005.6 |
| 20260507184513 | 68 | 57 | 3.0 | 7.0 | 0.00 | 0.00 | 0.00 | 31 | 1005.8 |
| 20260507183013 | 67 | 309 | 1.0 | 7.0 | 0.00 | 0.00 | 0.00 | 33 | 1005.8 |
| 20260507181509 | 67 | 306 | 1.0 | 8.0 | 0.00 | 0.00 | 0.00 | 34 | 1006.0 |
| 20260507180006 | 66 | 25 | 3.0 | 7.0 | 0.00 | 0.00 | 0.00 | 33 | 1005.9 |
| 20260507174509 | 66 | 228 | 2.0 | 7.0 | 0.00 | 0.00 | 0.00 | 34 | 1005.9 |
| 20260507173007 | 66 | 14 | 4.0 | 8.0 | 0.00 | 0.00 | 0.00 | 33 | 1005.9 |
| 20260507171601 | 65 | 31 | 4.0 | 7.0 | 0.00 | 0.00 | 0.00 | 33 | 1005.9 |
| 20260507170059 | 65 | 37 | 3.0 | 8.0 | 0.00 | 0.00 | 0.00 | 34 | 1005.8 |
| 20260507164628 | 64 | 60 | 3.0 | 9.0 | 0.00 | 0.00 | 0.00 | 34 | 1005.9 |
| 20260507163055 | 64 | 34 | 2.0 | 8.0 | 0.00 | 0.00 | 0.00 | 38 | 1005.8 |
| 20260507161555 | 63 | 336 | 2.0 | 8.0 | 0.00 | 0.00 | 0.00 | 40 | 1005.9 |
| 20260507160046 | 62 | 291 | 2.0 | 9.0 | 0.00 | 0.00 | 0.00 | 40 | 1005.9 |
| 20260507154544 | 60 | 86 | 3.0 | 7.0 | 0.00 | 0.00 | 0.00 | 41 | 1006.1 |
| 20260507153043 | 60 | 29 | 2.0 | 9.0 | 0.00 | 0.00 | 0.00 | 43 | 1006.0 |
| 20260507151538 | 59 | 33 | 1.0 | 5.0 | 0.00 | 0.00 | 0.00 | 45 | 1006.0 |
| 20260507150043 | 59 | 58 | 1.0 | 6.0 | 0.00 | 0.00 | 0.00 | 45 | 1006.0 |
| 20260507144538 | 58 | 27 | 1.0 | 4.0 | 0.00 | 0.00 | 0.00 | 47 | 1006.1 |
| 20260507143036 | 56 | 308 | 1.0 | 6.0 | 0.00 | 0.00 | 0.00 | 50 | 1006.1 |
| 20260507141532 | 55 | 293 | 1.0 | 6.0 | 0.00 | 0.00 | 0.00 | 53 | 1006.0 |
| 20260507140029 | 55 | 300 | 1.0 | 5.0 | 0.00 | 0.00 | 0.00 | 53 | 1006.0 |
| 20260507134527 | 55 | 280 | 1.0 | 6.0 | 0.00 | 0.00 | 0.00 | 54 | 1005.8 |
| 20260507133028 | 54 | 39 | 1.0 | 3.0 | 0.00 | 0.00 | 0.00 | 56 | 1005.7 |
| 20260507131525 | 53 | 302 | 1.0 | 5.0 | 0.00 | 0.00 | 0.00 | 58 | 1005.8 |
| 20260507130022 | 52 | 355 | 1.0 | 4.0 | 0.00 | 0.00 | 0.00 | 60 | 1005.6 |
| 20260507124530 | 50 | 41 | 0.0 | 2.0 | 0.00 | 0.00 | 0.00 | 63 | 1005.3 |
| 20260507123023 | 50 | 297 | 0.0 | 1.0 | 0.00 | 0.00 | 0.00 | 65 | 1005.2 |
| 20260507121520 | 50 | 219 | 0.0 | 1.0 | 0.00 | 0.00 | 0.00 | 66 | 1005.1 |
| 20260507120019 | 50 | 269 | 0.0 | 1.0 | 0.00 | 0.00 | 0.00 | 65 | 1005.0 |
| 20260507114515 | 51 | 217 | 0.0 | 2.0 | 0.00 | 0.00 | 0.00 | 65 | 1005.0 |
| 20260507113034 | 52 | 229 | 0.0 | 2.0 | 0.00 | 0.00 | 0.00 | 65 | 1004.8 |
| 20260507111616 | 52 | 209 | 0.0 | 1.0 | 0.00 | 0.00 | 0.00 | 66 | 1004.7 |
| 20260507110015 | 52 | 208 | 0.0 | 1.0 | 0.00 | 0.00 | 0.00 | 67 | 1004.7 |
| 20260507104513 | 52 | 209 | 0.0 | 1.0 | 0.00 | 0.00 | 0.00 | 67 | 1004.7 |
| 20260507103012 | 52 | 208 | 0.0 | 1.0 | 0.00 | 0.00 | 0.00 | 66 | 1004.6 |
| 20260507101515 | 53 | 209 | 0.0 | 2.0 | 0.00 | 0.00 | 0.00 | 65 | 1004.6 |
| 20260507100007 | 53 | 209 | 0.0 | 1.0 | 0.00 | 0.00 | 0.00 | 65 | 1004.5 |
| 20260507094506 | 53 | 210 | 0.0 | 1.0 | 0.00 | 0.00 | 0.00 | 65 | 1004.5 |